Location: Budapest
(47.4979°N, 19.0402°E)
Time: 04:52:09
(UTC+02:00)

Tiangong - Visible Passes

Search period start: 22 May 2024 00:00
Search period end: 01 June 2024 00:00
Orbit: 371 x 375 km, 41.5° (Epoch: 21 May)

Date Brightness Start Highest point End Pass type
(mag) Time Alt. Az. Time Alt. Az. Time Alt. Az.
24 May -0.1 03:59:33 10° SSW 04:01:28 15° SSE 04:03:23 10° ESE visible
25 May 0.4 02:58:33 10° SE 02:58:33 10° SE 02:58:40 10° SE visible
26 May -0.5 03:29:26 17° S 03:30:21 19° SSE 03:32:37 10° ESE visible
27 May 0.5 02:28:17 10° SE 02:28:17 10° SE 02:28:21 10° SE visible
27 May -0.9 04:00:12 11° SW 04:02:39 25° S 04:05:16 10° ESE visible
28 May -0.7 02:58:58 22° SSE 02:58:58 22° SSE 03:01:16 10° ESE visible
29 May -1.0 03:29:34 19° SW 03:30:52 26° S 03:33:31 10° ESE visible
30 May -0.2 02:28:14 17° SE 02:28:14 17° SE 02:29:22 10° ESE visible
30 May -0.8 04:00:18 10° WSW 04:02:49 23° S 04:05:19 10° SE visible
31 May -1.0 02:58:50 25° S 02:58:50 25° S 03:01:14 10° SE visible
